Location: Belfast
(54.5830°N, 5.9330°W)
Time: 01:48:46
(UTC+01:00)

ISS - Pass Details

Date: 29 March 2017
Orbit: 399 x 409 km, 51.6° (Epoch: 30 March)

Event Time Altitude Azimuth Distance (km) Brightness Sun altitude
Rises 22:14:26 0° 238° (WSW) 2,312 0.3 -19.3°
Reaches altitude 10° 22:16:36 10° 229° (SW) 1,456 -0.9 -19.5°
Enters shadow 22:17:46 19° 218° (SW) 1,041 -1.8 -19.7°
